GW4222 Weather Reports


Display with metric or nautical units.
time (UTC)temp
F
wind
direction
speed
MPH
gust
MPH
rain 1hr
in
rain 24hr
in
rain mn
in
humidity
%
barometer
mb
20260509103012 27 340 0.0 2.0 0.00 0.00 0.00 95 1013.8
20260509101510 27 340 0.0 2.0 0.00 0.00 0.00 94 1013.7
20260509100005 27 340 0.0 2.0 0.00 0.00 0.00 94 1013.8
20260509094528 27 340 0.0 2.0 0.00 0.00 0.00 94 1013.5
20260509093024 27 340 0.0 0.0 0.00 0.00 0.00 94 1013.2
20260509090014 27 340 0.0 2.0 0.00 0.00 0.00 94 1013.2
20260509083026 27 340 0.0 0.0 0.00 0.00 0.00 94 1013.2
20260509081525 27 340 0.0 0.0 0.00 0.00 0.00 94 1013.2
20260509074521 27 340 0.0 1.0 0.00 0.00 0.00 93 1013.3
20260509073028 27 340 0.0 2.0 0.00 0.00 0.00 93 1013.4
20260509070026 27 340 0.0 2.0 0.00 0.00 0.00 93 1013.2
20260509063030 28 340 0.0 0.0 0.00 0.00 0.00 92 1013.3
20260509061505 28 340 0.0 2.0 0.00 0.00 0.00 92 1013.3
20260509054504 28 340 0.0 0.0 0.00 0.00 0.00 92 1013.3
20260509053003 28 340 0.0 0.0 0.00 0.00 0.00 91 1013.2
20260509050009 29 340 0.0 0.0 0.00 0.00 0.00 90 1013.0
20260509044506 30 340 0.0 2.0 0.00 0.00 0.00 90 1013.0
20260509043005 30 281 0.0 1.0 0.00 0.00 0.00 89 1012.9
20260509041505 30 281 0.0 2.0 0.00 0.00 0.00 89 1012.9
20260509040017 31 281 0.0 2.0 0.00 0.00 0.00 87 1012.8
20260509034512 31 281 0.0 2.0 0.00 0.00 0.00 87 1012.8
20260509033006 32 281 0.0 0.0 0.00 0.00 0.00 85 1012.7
20260509030005 33 281 0.0 0.0 0.00 0.00 0.00 84 1012.3
20260509024504 34 281 0.0 2.0 0.00 0.00 0.00 82 1012.2
20260509023021 35 281 0.0 0.0 0.00 0.00 0.00 80 1012.0
20260509021517 36 281 0.0 0.0 0.00 0.00 0.00 78 1012.0
20260509020011 37 281 0.0 2.0 0.00 0.00 0.00 76 1011.7
20260509014511 38 281 0.0 2.0 0.00 0.00 0.00 74 1011.5
20260509013008 39 281 0.0 1.0 0.00 0.00 0.00 73 1011.3
20260509010032 41 281 0.0 1.0 0.00 0.00 0.00 69 1010.9
20260509004518 42 269 0.0 2.0 0.00 0.00 0.00 68 1010.6
20260509003021 43 269 0.0 1.0 0.00 0.00 0.00 64 1010.4
20260509001515 44 269 0.0 2.0 0.00 0.00 0.00 62 1010.3
20260508234508 46 269 0.0 2.0 0.00 0.00 0.00 59 1009.9
20260508233024 47 269 0.0 2.0 0.00 0.00 0.00 57 1009.9
20260508231523 49 269 0.0 2.0 0.00 0.00 0.00 56 1009.8
20260508230023 50 269 0.0 2.0 0.00 0.00 0.00 52 1009.7
20260508224518 51 235 0.0 2.0 0.00 0.00 0.00 43 1009.7
20260508223033 51 292 0.0 2.0 0.00 0.00 0.00 41 1009.7
20260508221512 51 329 0.0 3.0 0.00 0.00 0.00 41 1009.6
20260508214524 51 78 1.0 8.0 0.00 0.00 0.00 41 1009.5
20260508213030 51 182 1.0 6.0 0.00 0.00 0.00 40 1009.5
20260508210019 52 59 0.0 5.0 0.00 0.00 0.00 41 1009.3
20260508204522 51 352 2.0 8.0 0.00 0.00 0.00 40 1009.1
20260508203010 51 65 4.0 9.0 0.00 0.00 0.00 40 1009.1
20260508201506 51 30 2.0 12.0 0.00 0.00 0.00 42 1009.1
20260508200005 51 295 2.0 9.0 0.00 0.00 0.00 45 1009.1
20260508193020 51 44 8.0 14.0 0.00 0.00 0.00 41 1009.3
20260508191517 50 298 2.0 10.0 0.00 0.00 0.00 44 1009.2
20260508190022 50 38 4.0 11.0 0.00 0.00 0.00 44 1009.4
20260508184511 50 56 2.0 12.0 0.00 0.00 0.00 45 1009.4
20260508183011 49 38 1.0 7.0 0.00 0.00 0.00 46 1009.5
20260508180025 50 66 1.0 11.0 0.00 0.00 0.00 45 1009.5
20260508174520 49 119 3.0 17.0 0.00 0.00 0.00 43 1009.5
20260508173019 48 5 1.0 4.0 0.00 0.00 0.00 47 1009.5
20260508171515 48 98 2.0 8.0 0.00 0.00 0.00 48 1009.5
20260508170010 48 128 2.0 5.0 0.00 0.00 0.00 48 1009.6
20260508164508 48 79 1.0 4.0 0.00 0.00 0.00 47 1009.6
20260508163024 48 40 4.0 11.0 0.00 0.00 0.00 46 1009.5
20260508161522 48 301 1.0 3.0 0.00 0.00 0.00 45 1009.6
20260508160043 49 100 5.0 11.0 0.00 0.00 0.00 44 1009.4
20260508154516 49 19 4.0 9.0 0.00 0.00 0.00 45 1009.6
20260508153017 48 59 3.0 9.0 0.00 0.00 0.00 47 1009.4
20260508151511 49 360 2.0 9.0 0.00 0.00 0.00 53 1009.5
20260508150033 47 348 2.0 8.0 0.00 0.00 0.00 54 1009.6
20260508144525 48 348 3.0 10.0 0.00 0.00 0.00 55 1009.5
20260508143030 48 152 3.0 8.0 0.00 0.00 0.00 58 1009.6
20260508141522 46 284 1.0 12.0 0.00 0.00 0.00 60 1009.7
20260508140019 46 18 4.0 10.0 0.00 0.00 0.00 61 1009.7
20260508133027 47 352 5.0 12.0 0.00 0.00 0.00 60 1009.5
20260508131526 46 211 6.0 16.0 0.00 0.00 0.00 59 1009.4
20260508130023 45 303 2.0 8.0 0.00 0.00 0.00 66 1009.4
20260508124522 42 109 2.0 3.0 0.00 0.00 0.00 80 1009.4
20260508123020 41 186 0.0 2.0 0.00 0.00 0.00 82 1009.4
20260508121509 37 206 1.0 2.0 0.00 0.00 0.00 87 1009.4
20260508120003 35 287 0.0 2.0 0.00 0.01 0.00 92 1009.4
20260508114507 33 162 0.0 2.0 0.00 0.02 0.00 95 1009.4
20260508113008 32 195 0.0 2.0 0.00 0.02 0.00 95 1009.3
20260508111507 30 348 0.0 2.0 0.00 0.02 0.00 95 1009.2
20260508110006 30 348 0.0 2.0 0.00 0.02 0.00 95 1009.2
20260508104504 29 348 0.0 0.0 0.00 0.02 0.00 95 1009.2